CW7731 Weather Reports


time (UTC)temp
C
wind
direction
speed
KPH
gust
KPH
rain 1hr
cm
rain 24hr
cm
rain mn
cm
humidity
%
barometer
mb
20260906103108 30 127 0.0 12.9 0.00 0.00 0.00 44 1020.5
20260906101136 30 65 0.0 16.1 0.00 0.00 0.00 46 1020.7
20260906100123 29 122 0.0 6.4 0.00 0.00 0.00 47 1020.7
20260906094139 29 172 0.0 8.0 0.00 0.00 0.00 48 1020.9
20260906093142 29 48 0.0 11.3 0.00 0.00 0.00 47 1021.0
20260906091136 28 109 3.2 14.5 0.00 0.00 0.00 49 1021.1
20260906090127 28 102 0.0 8.0 0.00 0.00 0.00 49 1021.1
20260906084101 28 40 0.0 17.7 0.00 0.00 0.00 50 1021.2
20260906083131 27 79 4.8 17.7 0.00 0.00 0.00 50 1021.2
20260906082105 28 74 1.6 16.1 0.00 0.00 0.00 51 1021.2
20260906081132 28 102 0.0 4.8 0.00 0.00 0.00 53 1021.1
20260906080142 28 103 1.6 11.3 0.00 0.00 0.00 53 1021.1
20260906075102 27 70 0.0 6.4 0.00 0.00 0.00 53 1021.1
20260906074112 27 30 1.6 16.1 0.00 0.00 0.00 54 1021.0
20260906073116 27 57 0.0 1.6 0.00 0.00 0.00 54 1021.0
20260906071135 27 14 0.0 6.4 0.00 0.00 0.00 56 1020.9
20260906070109 27 15 3.2 9.7 0.00 0.00 0.00 55 1020.9
20260906065108 27 67 0.0 9.7 0.00 0.00 0.00 56 1020.8
20260906064140 26 38 0.0 0.0 0.00 0.00 0.00 56 1020.8
20260906063138 26 26 0.0 0.0 0.00 0.00 0.00 58 1020.7
20260906062131 25 18 0.0 6.4 0.00 0.00 0.00 61 1020.6
20260906060107 23 267 0.0 6.4 0.00 0.00 0.00 72 1020.3
20260906055122 22 303 0.0 1.6 0.00 0.00 0.00 74 1020.1
20260906054107 22 304 0.0 1.6 0.00 0.00 0.00 75 1020.1
20260906053123 22 311 0.0 3.2 0.00 0.00 0.00 75 1020.0
20260906052138 22 310 0.0 0.0 0.00 0.00 0.00 76 1020.0
20260906051129 22 310 0.0 3.2 0.00 0.00 0.00 75 1019.8
20260906050115 22 314 0.0 1.6 0.00 0.00 0.00 76 1019.6
20260906045108 22 338 0.0 3.2 0.00 0.00 0.00 76 1019.6
20260906044122 22 314 0.0 14.5 0.00 0.00 0.00 76 1019.5
20260906043146 22 312 0.0 0.0 0.00 0.00 0.00 76 1019.4
20260906042107 22 313 0.0 0.0 0.00 0.00 0.00 76 1019.3
20260906041127 22 313 0.0 0.0 0.00 0.00 0.00 76 1019.3
20260906035131 22 302 0.0 3.2 0.00 0.00 0.00 75 1019.1
20260906033124 22 309 0.0 9.7 0.00 0.00 0.00 75 1018.9
20260906032122 22 300 0.0 3.2 0.00 0.00 0.00 75 1018.9
20260906031142 22 307 0.0 1.6 0.00 0.00 0.00 75 1018.9
20260906030115 22 314 0.0 8.0 0.00 0.00 0.00 75 1018.9
20260906025103 23 308 0.0 1.6 0.00 0.00 0.00 75 1018.9
20260906024145 23 308 0.0 0.0 0.00 0.00 0.00 75 1019.0
20260906023109 23 308 0.0 6.4 0.00 0.00 0.00 74 1018.9
20260906022131 23 313 0.0 8.0 0.00 0.00 0.00 74 1018.9
20260906021135 23 320 0.0 0.0 0.00 0.00 0.00 74 1018.9
20260906020119 23 320 0.0 4.8 0.00 0.00 0.00 74 1018.9
20260906015112 23 321 0.0 8.0 0.00 0.00 0.00 74 1018.9
20260906014115 23 321 0.0 0.0 0.00 0.00 0.00 74 1018.8
20260906013129 23 321 0.0 0.0 0.00 0.00 0.00 74 1018.7
20260906012125 23 321 0.0 1.6 0.00 0.00 0.00 73 1018.7
20260906011122 23 321 0.0 0.0 0.00 0.00 0.00 73 1018.7
20260906010138 23 321 0.0 1.6 0.00 0.00 0.00 73 1018.6
20260906005135 23 321 0.0 1.6 0.00 0.00 0.00 73 1018.6
20260906004130 24 322 0.0 1.6 0.00 0.00 0.00 72 1018.6
20260906003120 25 322 0.0 0.0 0.00 0.00 0.00 70 1018.6
20260906001117 25 325 0.0 8.0 0.00 0.00 0.00 70 1018.6
20260906000120 25 325 0.0 14.5 0.00 0.00 0.00 69 1018.5
20260905235113 25 334 0.0 3.2 0.00 0.00 0.00 69 1018.5
20260905234121 25 304 0.0 0.0 0.00 0.00 0.00 70 1018.4
20260905233140 25 304 0.0 0.0 0.00 0.00 0.00 70 1018.4
20260905232141 25 304 0.0 0.0 0.00 0.00 0.00 70 1018.3
20260905231117 25 304 0.0 0.0 0.00 0.00 0.00 70 1018.2
20260905225112 25 302 0.0 0.0 0.00 0.00 0.00 70 1018.1
20260905224138 25 302 0.0 1.6 0.00 0.00 0.00 70 1017.9
20260905223104 25 302 0.0 1.6 0.00 0.00 0.00 70 1017.9
20260905222120 25 301 0.0 1.6 0.00 0.00 0.00 69 1017.8
20260905221134 25 301 0.0 1.6 0.00 0.00 0.00 69 1017.8
20260905220144 26 301 0.0 1.6 0.00 0.00 0.00 69 1017.7
20260905214115 26 300 0.0 3.2 0.00 0.00 0.00 68 1017.7
20260905213116 26 300 0.0 9.7 0.00 0.00 0.00 68 1017.7
20260905212140 26 298 0.0 0.0 0.00 0.00 0.00 68 1017.5
20260905211131 26 297 0.0 0.0 0.00 0.00 0.00 68 1017.3
20260905210104 26 297 0.0 0.0 0.00 0.00 0.00 67 1017.2
20260905205111 26 297 0.0 0.0 0.00 0.00 0.00 66 1017.1
20260905204122 26 297 0.0 0.0 0.00 0.00 0.00 65 1017.1
20260905203103 26 297 0.0 0.0 0.00 0.00 0.00 66 1017.0
20260905201128 26 298 0.0 4.8 0.00 0.00 0.00 66 1016.8
20260905195115 27 298 0.0 0.0 0.00 0.00 0.00 65 1016.6
20260905194136 27 298 0.0 0.0 0.00 0.00 0.00 65 1016.6
20260905193133 27 298 0.0 0.0 0.00 0.00 0.00 64 1016.4
20260905192125 27 298 0.0 0.0 0.00 0.00 0.00 63 1016.2
20260905191119 28 302 1.6 9.7 0.00 0.00 0.00 63 1016.1
20260905190122 28 303 0.0 6.4 0.00 0.00 0.00 62 1015.9
20260905185110 28 80 0.0 0.0 0.00 0.00 0.00 60 1015.7
20260905183128 29 85 0.0 0.0 0.00 0.00 0.00 57 1015.5
20260905182106 30 85 0.0 0.0 0.00 0.00 0.00 56 1015.3
20260905181141 30 85 0.0 0.0 0.00 0.00 0.00 55 1015.1
20260905180138 30 85 0.0 0.0 0.00 0.00 0.00 55 1014.9
20260905175107 30 90 0.0 0.0 0.00 0.00 0.00 55 1014.9
20260905172127 31 91 0.0 0.0 0.00 0.00 0.00 54 1014.4
20260905171138 31 92 0.0 0.0 0.00 0.00 0.00 54 1014.4
20260905170101 31 89 0.0 3.2 0.00 0.00 0.00 52 1014.3
20260905165110 32 166 0.0 0.0 0.00 0.00 0.00 50 1014.2
20260905164138 32 175 0.0 3.2 0.00 0.00 0.00 49 1014.1
20260905163132 32 176 0.0 3.2 0.00 0.00 0.00 49 1014.0
20260905162108 32 167 0.0 6.4 0.00 0.00 0.00 49 1013.9
20260905160146 32 139 0.0 1.6 0.00 0.00 0.00 48 1013.8
20260905154139 32 171 0.0 0.0 0.00 0.00 0.00 49 1013.7
20260905153141 32 162 0.0 11.3 0.00 0.00 0.00 48 1013.7
20260905151122 33 205 0.0 8.0 0.00 0.00 0.00 47 1013.6
20260905145141 33 190 0.0 3.2 0.00 0.00 0.00 47 1013.6
20260905144127 33 209 0.0 1.6 0.00 0.00 0.00 47 1013.5
20260905142101 33 148 0.0 8.0 0.00 0.00 0.00 47 1013.7
20260905140141 33 188 0.0 3.2 0.00 0.00 0.00 46 1013.9
20260905135137 33 203 0.0 1.6 0.00 0.00 0.00 47 1014.0
20260905134145 33 192 0.0 8.0 0.00 0.00 0.00 46 1014.0
20260905133104 33 210 0.0 6.4 0.00 0.00 0.00 46 1014.1
20260905131108 33 221 0.0 0.0 0.00 0.00 0.00 47 1014.3
20260905130122 32 208 0.0 11.3 0.00 0.00 0.00 47 1014.4
20260905125138 32 222 0.0 1.6 0.00 0.00 0.00 49 1014.4
20260905124129 32 145 0.0 8.0 0.00 0.00 0.00 49 1014.5
20260905123102 32 159 0.0 3.2 0.00 0.00 0.00 50 1014.5
20260905122135 32 211 0.0 1.6 0.00 0.00 0.00 49 1014.7
20260905120121 32 173 1.6 11.3 0.00 0.00 0.00 49 1014.8
20260905115110 32 175 0.0 1.6 0.00 0.00 0.00 48 1014.9
20260905114112 31 180 0.0 0.0 0.00 0.00 0.00 49 1014.9
20260905113146 31 179 0.0 9.7 0.00 0.00 0.00 51 1015.0
20260905112123 31 183 0.0 9.7 0.00 0.00 0.00 49 1015.1
20260905111123 31 208 0.0 0.0 0.00 0.00 0.00 48 1015.1
20260905110144 31 196 0.0 0.0 0.00 0.00 0.00 50 1015.1
20260905105130 30 203 0.0 1.6 0.00 0.00 0.00 51 1015.2